1998-067PC (43554 NORAD) Tracking and Keplerian Element Data

This shows tracking and keplerian element data for the satellite.

Feedback or suggestion? Click here.




ElementValue
Catalog43554
Name1998-067PC
Epoch Orbit4370
Epoch Day112.66888019
Epoch Year2019
RAAN268.2342
Inclination51.6381
Eccentricity0.000601
Argument of Perigee288.5959
Mean Anonmoly71.4382
Mean Motion15.61508789
Decay Rate0.00014825
L11 43554U 98067PC 19112.66888019 .00014825 00000-0 17534-3 0 9994
L22 43554 51.6381 268.2342 0006010 288.5959 71.4382 15.61508789 43706

Live tracking and technical data element details for 1998-067PC (NORAD 43554). 1998-067PC can be tracked NOW for your location showing map with azimuth and elevation plus other details from your city location.

Track the satellite on the map from your city or location and see movement details for azimuth, elevation, latitude, longitude, range, height, and movement on the map or in text.







IsCatalogInMostPopularTable: catalog: 43554, numindb: 143
Update: records affected: 1



GetName: 43554 1998-067PC

Hit Count: updated at: Tue, 23 Apr 2019 20:19:44 GMT